#timestamp,LO_Frequency,Hit,StdDev 
1571032815.2,286046999.4,N
1571032835.1,286046997.1,N
1571032836.0,286046997.1,N
1571032855.8,286046997.7,N
1571032875.6,286047001.2,N
1571032895.0,286047001.9,N
1571032895.9,286047001.9,N
1571032915.7,286047002.0,N
1571032935.6,286047002.6,N
1571032955.4,286047004.0,N
1571032975.3,286047004.2,N
1571032995.1,286047004.2,N
1571032996.0,286047004.2,N
1571033015.8,286047001.3,N
1571033035.7,286047005.8,N
1571033055.5,286047005.6,N
1571033075.4,286047005.7,N
1571033095.2,286047004.9,N
1571033115.0,286047005.6,N
1571033115.9,286047005.6,N
1571033135.8,286047004.3,N
1571033155.6,286047003.8,N
1571033175.4,286047003.1,N
1571033195.3,286047003.5,N
1571033215.1,286047004.1,N
1571033235.9,286047004.2,N
1571033255.7,286047002.6,N
1571033275.5,286047003.1,N
1571033295.4,286047003.9,N
1571033315.2,286047006.0,N
1571033335.1,286047003.6,N
1571033336.0,286047003.6,N
1571033355.8,286047003.0,N
1571033375.6,286047003.1,N
1571033395.5,286047005.5,Y
1571033415.6,286047000.1,P
1571033435.5,286046999.9,N
1571033455.3,286047001.0,N
1571033475.1,286046999.9,N
1571033495.9,286046999.7,N
1571033515.7,286046998.1,N
1571033535.6,286046998.2,N
1571033555.4,286046998.6,N
1571033575.2,286046998.5,N
1571033595.1,286046999.1,N
1571033596.0,286046999.1,N
1571033615.8,286046999.5,N
1571033635.7,286046996.6,N
1571033655.5,286046998.3,N
1571033675.3,286046999.2,N
1571033695.2,286046996.9,N
1571033715.0,286046999.2,N
1571033715.9,286046999.2,N
1571033735.7,286046999.2,N
1571033755.6,286046997.7,N
1571033775.4,286046996.6,N
1571033795.3,286046996.6,N
1571033815.1,286046996.5,N
1571033816.0,286046996.5,N
1571033835.8,286046995.6,N
1571033855.7,286046995.9,N
1571033875.5,286046995.8,N
1571033895.4,286046993.5,Y
1571033915.2,286046995.7,P
1571033935.0,286046993.7,P
1571033935.9,286046993.7,P
1571033955.8,286046996.3,N
1571033975.6,286046995.6,N
1571033995.5,286046995.7,N
1571034015.3,286046995.8,N
1571034035.1,286046993.3,Y
1571034055.9,286047000.2,P
1571034075.7,286047000.4,N
1571034095.5,286047000.9,N
1571034115.4,286047000.7,N
1571034135.2,286046998.5,N
1571034155.1,286046999.0,N
1571034156.0,286046999.0,N
1571034175.8,286046996.6,N
1571034195.6,286046999.0,N
1571034215.5,286046994.9,Y
1571034235.3,286046999.2,P
1571034255.2,286046998.1,P
1571034275.9,286046998.4,P
1571034295.7,286047000.6,N
1571034315.6,286047000.5,N
1571034335.4,286047000.4,N
1571034355.2,286047000.3,N
1571034375.1,286047001.2,N
1571034376.0,286047001.2,N
1571034395.8,286046998.4,N
1571034415.7,286046998.6,N
1571034435.5,286046999.3,N
1571034455.3,286046996.7,Y
1571034475.2,286046996.6,P
1571034495.0,286046996.5,N
1571034495.9,286046996.5,N
1571034515.8,286046996.5,N
1571034535.6,286046999.0,N
1571034555.4,286046999.4,N
1571034575.3,286046998.4,N
1571034595.1,286046998.5,N
1571034615.9,286046999.4,N
1571034635.7,286046998.3,N
1571034655.5,286047000.5,N
1571034675.4,286047000.6,N
1571034695.4,286046999.0,N
1571034715.3,286046998.1,N
1571034735.1,286046999.6,N
1571034755.9,286047001.1,N
1571034775.7,286047001.1,N
1571034795.3,286046999.8,N
1571034815.1,286047001.2,N
1571034835.9,286046996.5,N
1571034855.7,286046998.5,N
1571034875.6,286046998.6,N
1571034895.4,286047001.2,N
1571034915.2,286047002.7,N
1571034935.1,286046999.7,N
1571034936.0,286046999.7,N
1571034955.8,286047002.8,N
1571034975.6,286047002.2,N
1571034995.5,286047000.1,N
1571035015.3,286047000.4,N
1571035035.2,286047002.6,N
1571035055.9,286047000.2,N
1571035075.7,286047000.3,N
1571035095.6,286047000.4,N
1571035115.4,286046998.1,N
1571035135.3,286047000.7,N
1571035155.1,286047000.2,N
1571035156.0,286047000.2,N
1571035175.8,286047002.2,N
1571035195.7,286047000.3,N
1571035215.5,286046998.5,N
1571035235.3,286047001.0,N
1571035255.2,286047000.1,N
1571035275.0,286047002.5,N
1571035275.9,286047002.5,N
1571035295.8,286047001.7,N
1571035315.6,286047002.4,N
1571035335.4,286046998.4,N
1571035355.3,286047001.2,N
1571035375.1,286046998.3,N
1571035395.9,286047001.1,N
1571035415.7,286046999.8,N
1571035435.5,286046998.1,N
1571035455.4,286047000.8,N
1571035475.2,286047000.8,N
1571035495.0,286046998.7,N
1571035495.9,286046998.7,N
1571035515.8,286046998.3,N
1571035535.6,286047000.5,N
1571035555.5,286047002.4,N
1571035575.6,286046999.9,N
1571035595.5,286046998.5,N
1571035615.3,286046999.9,N
1571035635.2,286047000.9,N
1571035655.9,286047000.0,N
1571035675.7,286046999.8,N
1571035695.6,286047005.9,Y
1571035715.4,286047002.6,P
1571035735.2,286047000.4,N
1571035755.1,286047002.8,N
1571035756.0,286047002.8,N
1571035775.8,286047002.4,N
1571035795.7,286047002.7,N
1571035815.5,286047002.4,N
1571035835.3,286046999.8,N
1571035855.2,286046999.7,N
1571035875.0,286046998.1,N
1571035875.9,286046998.1,N
1571035895.8,286047000.9,N
1571035915.6,286047002.4,N
1571035935.4,286047002.3,N
1571035955.3,286047003.3,N
1571035975.1,286047005.0,N
1571035995.8,286047005.8,Y
1571036015.7,286047002.3,P
1571036035.5,286047001.2,P
1571036055.4,286046998.7,N
1571036075.2,286046999.1,N
1571036095.0,286046999.5,N
1571036095.9,286046999.5,N
1571036115.8,286046998.9,N
1571036135.6,286047000.9,N
1571036155.5,286046996.7,N
1571036175.3,286046998.3,N
1571036195.1,286047001.0,N
1571036215.9,286047000.0,N
1571036235.7,286047000.6,N
1571036255.5,286046999.9,N
1571036275.4,286047002.3,N
1571036295.2,286047001.1,N
1571036315.1,286046998.5,N
1571036316.0,286046998.5,N
1571036335.8,286047000.8,N
1571036355.6,286046997.1,N
1571036375.5,286047000.8,N
1571036395.3,286047001.2,N
